{"data":{"norad_id":65831,"epoch":"2026-05-25T02:53:44.678400Z","epoch_age_seconds":74872,"freshness":"FRESH","line1":"1 65831U 25221J   26145.12065600  .00027147  00000+0  81173-3 0  9996","line2":"2 65831  53.1607  92.7421 0000996  73.7391 286.3721 15.34398048 37796","mean_motion":15.34398048,"eccentricity":9.96e-5,"inclination_deg":53.1607,"raan_deg":92.7421,"arg_perigee_deg":73.7391,"mean_anomaly_deg":286.3721,"bstar":0.00081173,"rev_number":3779,"period_min":93.84787747071,"perigee_km":462.02769370284,"apogee_km":463.3903902344,"semimajor_km":6840.8460419686,"source":"CELESTRAK","updated_at":"2026-05-25T13:38:20.943304Z"}}